This is the latest recevied weather packets stored in our database for station/object SQ5JP-4. If no packets are shown the sender has not sent any weather packets the latest 10 day(s).
| Time | Temp. | Humidity | Pressure | Rain* | Wind** | Luminosity | Snow |
|---|---|---|---|---|---|---|---|
| 1787890724 | 10.56° C | 100% | 1004.7 hPa | - | - | - | - |
| 1787889823 | 10° C | 100% | 1004.7 hPa | - | - | - | - |
| 1787888923 | 10° C | 100% | 1004.6 hPa | - | - | - | - |
| 1787888023 | 10° C | 100% | 1004.6 hPa | - | - | - | - |
| 1787887123 | 10° C | 100% | 1004.5 hPa | - | - | - | - |
| 1787886223 | 10° C | 100% | 1004.5 hPa | - | - | - | - |
| 1787885323 | 10.56° C | 100% | 1004.7 hPa | - | - | - | - |
| 1787884423 | 10.56° C | 100% | 1004.6 hPa | - | - | - | - |
| 1787883523 | 10.56° C | 100% | 1004.5 hPa | - | - | - | - |
| 1787882622 | 10.56° C | 100% | 1004.8 hPa | - | - | - | - |
| 1787881722 | 10.56° C | 100% | 1004.9 hPa | - | - | - | - |
| 1787880822 | 11.11° C | 100% | 1004.7 hPa | - | - | - | - |
| 1787879023 | 11.11° C | 100% | 1004.9 hPa | - | - | - | - |
| 1787878123 | 11.11° C | 100% | 1005.1 hPa | - | - | - | - |
| 1787877223 | 11.11° C | 100% | 1005.1 hPa | - | - | - | - |
| 1787875423 | 11.67° C | 100% | 1005.4 hPa | - | - | - | - |
| 1787872722 | 11.67° C | 100% | 1005.3 hPa | - | - | - | - |
| 1787871822 | 11.67° C | 100% | 1005.3 hPa | - | - | - | - |
| 1787868222 | 11.67° C | 100% | 1005.1 hPa | - | - | - | - |
| 1787866421 | 11.67° C | 100% | 1004.9 hPa | - | - | - | - |
| 1787865522 | 11.67° C | 100% | 1004.7 hPa | - | - | - | - |
| 1787859221 | 12.78° C | 100% | 1004.9 hPa | - | - | - | - |
| 1787855623 | 14.44° C | 100% | 1005.2 hPa | - | - | - | - |
| 1787854723 | 15° C | 100% | 1005.6 hPa | - | - | - | - |
| 1787852022 | 17.22° C | 100% | 1005.2 hPa | - | - | - | - |
* Rain since midnight (hover to see other rain measurements)
** Current wind speed in m/s (hover to see current wind gust speed)